QPF
0.01 0.01 0.01 0.01 0.01 0.01 0.01 0.01 0.01 0.00 0.00 0.00 0.00 0.00 0.01 0.01 0.02 0.02 0.03 0.02 0.02 0.03 0.03 0.04 0.05 0.04 0.04 0.05 0.07 0.06 0.06 0.05 0.05 0.04 0.04 0.03 0.03 0.02 0.02 0.02 0.02 0.02 0.02
0.00 0.00 0.00 0.00 0.00 0.00 0.00 0.01 0.00 0.00 0.00 0.00 0.00 0.00 0.01 0.01 0.02 0.02 0.03 0.02 0.03 0.03 0.03 0.04 0.06 0.05 0.04 0.05 0.06 0.06 0.06 0.06 0.05 0.03 0.03 0.03 0.03 0.02 0.02 0.01 0.02 0.01 0.02
0.00 0.01 0.00 0.00 0.00 0.00 0.00 0.00 0.00 0.00 0.00 0.00 0.00 0.00 0.00 0.01 0.01 0.01 0.01 0.02 0.04 0.04 0.04 0.05 0.07 0.06 0.04 0.04 0.05 0.05 0.05 0.05 0.07 0.05 0.04 0.02 0.02 0.02 0.01 0.01 0.02 0.02 0.02
0.01 0.00 0.00 0.00 0.00 0.00 0.00 0.00 0.00 0.00 0.00 0.00 0.00 0.00 0.00 0.00 0.01 0.01 0.01 0.03 0.03 0.05 0.05 0.05 0.06 0.06 0.05 0.04 0.05 0.04 0.03 0.04 0.05 0.06 0.03 0.03 0.02 0.02 0.01 0.01 0.01 0.01 0.02
0.00 0.00 0.00 0.00 0.00 0.01 0.00 0.00 0.00 0.00 0.00 0.00 0.00 0.00 0.00 0.00 0.01 0.01 0.02 0.02 0.03 0.05 0.04 0.03 0.03 0.03 0.03 0.03 0.04 0.04 0.03 0.04 0.05 0.06 0.04 0.03 0.03 0.02 0.02 0.01 0.01 0.00 0.01
0.00 0.00 0.01 0.01 0.01 0.01 0.00 0.01 0.01 0.01 0.00 0.00 0.00 0.01 0.01 0.01 0.01 0.01 0.01 0.01 0.02 0.04 0.04 0.03 0.03 0.02 0.02 0.02 0.04 0.05 0.04 0.04 0.04 0.04 0.04 0.03 0.02 0.02 0.02 0.01 0.01 0.00 0.00
0.00 0.01 0.01 0.01 0.01 0.01 0.01 0.01 0.02 0.02 0.01 0.01 0.01 0.02 0.02 0.02 0.01 0.01 0.01 0.01 0.02 0.02 0.03 0.04 0.04 0.03 0.02 0.03 0.03 0.04 0.04 0.04 0.03 0.03 0.03 0.02 0.02 0.02 0.02 0.02 0.01 0.01 0.00
0.01 0.01 0.01 0.02 0.01 0.01 0.02 0.02 0.04 0.03 0.02 0.02 0.02 0.03 0.03 0.02 0.01 0.02 0.02 0.02 0.02 0.03 0.03 0.03 0.03 0.02 0.03 0.04 0.04 0.04 0.04 0.04 0.03 0.03 0.02 0.03 0.03 0.03 0.03 0.02 0.02 0.01 0.00
0.01 0.02 0.02 0.03 0.03 0.03 0.03 0.04 0.05 0.05 0.05 0.04 0.03 0.03 0.03 0.03 0.03 0.04 0.04 0.04 0.03 0.03 0.03 0.02 0.02 0.01 0.02 0.05 0.05 0.04 0.04 0.05 0.04 0.04 0.03 0.03 0.04 0.04 0.03 0.03 0.03 0.02 0.01
0.04 0.04 0.05 0.06 0.05 0.04 0.04 0.05 0.04 0.05 0.05 0.05 0.05 0.04 0.04 0.03 0.03 0.05 0.05 0.04 0.04 0.03 0.02 0.01 0.01 0.01 0.02 0.03 0.03 0.03 0.04 0.04 0.03 0.03 0.03 0.03 0.04 0.03 0.02 0.03 0.03 0.03 0.02
0.06 0.07 0.06 0.06 0.08 0.09 0.05 0.05 0.06 0.06 0.07 0.08 0.09 0.08 0.07 0.07 0.06 0.06 0.05 0.04 0.03 0.02 0.01 0.01 0.01 0.01 0.01 0.01 0.02 0.02 0.04 0.04 0.03 0.03 0.03 0.03 0.03 0.02 0.02 0.02 0.02 0.02 0.02
0.04 0.05 0.06 0.07 0.08 0.06 0.06 0.07 0.10 0.11 0.11 0.13 0.15 0.12 0.09 0.06 0.05 0.04 0.04 0.03 0.02 0.01 0.01 0.01 0.01 0.01 0.01 0.03 0.03 0.01 0.03 0.03 0.03 0.03 0.03 0.02 0.02 0.02 0.02 0.02 0.01 0.01 0.02
0.02 0.02 0.04 0.07 0.09 0.09 0.10 0.12 0.13 0.12 0.12 0.14 0.14 0.11 0.08 0.05 0.04 0.04 0.03 0.03 0.03 0.02 0.02 0.02 0.01 0.01 0.02 0.03 0.02 0.03 0.02 0.02 0.01 0.02 0.01 0.01 0.02 0.02 0.02 0.03 0.02 0.02 0.03
0.01 0.03 0.05 0.07 0.08 0.09 0.11 0.11 0.10 0.10 0.10 0.09 0.08 0.08 0.08 0.07 0.06 0.04 0.04 0.04 0.04 0.03 0.02 0.02 0.01 0.01 0.02 0.02 0.02 0.02 0.02 0.02 0.02 0.01 0.02 0.01 0.02 0.02 0.03 0.04 0.03 0.03 0.03
0.02 0.03 0.04 0.06 0.07 0.07 0.09 0.09 0.08 0.08 0.09 0.07 0.07 0.07 0.05 0.04 0.04 0.05 0.05 0.04 0.03 0.02 0.02 0.01 0.01 0.03 0.03 0.02 0.03 0.03 0.03 0.03 0.02 0.02 0.03 0.03 0.04 0.03 0.04 0.04 0.03 0.05 0.04
0.02 0.03 0.04 0.05 0.06 0.06 0.06 0.06 0.07 0.06 0.06 0.06 0.06 0.05 0.06 0.08 0.10 0.09 0.08 0.07 0.05 0.04 0.04 0.03 0.03 0.03 0.04 0.04 0.04 0.04 0.04 0.04 0.03 0.03 0.03 0.03 0.04 0.04 0.03 0.04 0.04 0.05 0.04
0.03 0.03 0.04 0.05 0.05 0.04 0.04 0.04 0.05 0.06 0.05 0.06 0.07 0.08 0.15 0.19 0.19 0.16 0.10 0.07 0.06 0.05 0.04 0.03 0.03 0.03 0.03 0.04 0.04 0.05 0.06 0.05 0.04 0.04 0.04 0.03 0.03 0.03 0.03 0.04 0.05 0.05 0.05
0.03 0.03 0.04 0.05 0.04 0.04 0.05 0.05 0.06 0.11 0.11 0.08 0.08 0.10 0.12 0.13 0.13 0.10 0.09 0.07 0.04 0.03 0.02 0.02 0.03 0.03 0.02 0.03 0.05 0.07 0.08 0.07 0.06 0.06 0.05 0.03 0.02 0.02 0.02 0.03 0.04 0.05 0.05
0.04 0.04 0.04 0.05 0.06 0.06 0.05 0.04 0.04 0.09 0.15 0.12 0.12 0.10 0.07 0.06 0.06 0.07 0.07 0.05 0.04 0.03 0.03 0.04 0.04 0.03 0.03 0.04 0.05 0.06 0.05 0.04 0.04 0.04 0.04 0.03 0.03 0.03 0.03 0.04 0.05 0.06 0.06
0.05 0.04 0.04 0.05 0.06 0.06 0.06 0.06 0.07 0.08 0.14 0.18 0.15 0.10 0.07 0.04 0.03 0.03 0.04 0.04 0.03 0.03 0.04 0.05 0.05 0.05 0.04 0.05 0.05 0.04 0.04 0.03 0.04 0.05 0.05 0.05 0.04 0.04 0.05 0.05 0.05 0.05 0.06
0.05 0.05 0.05 0.07 0.07 0.06 0.07 0.09 0.12 0.11 0.12 0.14 0.13 0.12 0.09 0.06 0.04 0.03 0.03 0.04 0.04 0.05 0.05 0.06 0.06 0.06 0.05 0.05 0.05 0.04 0.04 0.05 0.06 0.06 0.05 0.05 0.05 0.05 0.05 0.05 0.05 0.04 0.04
0.04 0.05 0.06 0.07 0.08 0.08 0.07 0.06 0.08 0.10 0.11 0.11 0.11 0.11 0.12 0.11 0.08 0.07 0.06 0.06 0.06 0.07 0.07 0.06 0.05 0.05 0.04 0.04 0.05 0.04 0.04 0.04 0.03 0.02 0.02 0.02 0.02 0.02 0.02 0.02 0.02 0.02 0.03
0.03 0.03 0.04 0.04 0.04 0.05 0.06 0.05 0.05 0.06 0.07 0.08 0.09 0.09 0.11 0.18 0.16 0.12 0.10 0.10 0.09 0.08 0.07 0.06 0.05 0.06 0.06 0.05 0.04 0.04 0.03 0.02 0.01 0.01 0.01 0.01 0.01 0.01 0.01 0.01 0.01 0.02 0.02
0.04 0.03 0.03 0.03 0.04 0.03 0.02 0.03 0.04 0.04 0.04 0.04 0.05 0.06 0.08 0.11 0.16 0.15 0.13 0.11 0.11 0.15 0.16 0.13 0.09 0.08 0.07 0.07 0.07 0.06 0.05 0.03 0.02 0.01 0.01 0.01 0.01 0.01 0.01 0.01 0.01 0.01 0.01
0.03 0.03 0.04 0.03 0.03 0.03 0.03 0.02 0.02 0.03 0.03 0.03 0.03 0.04 0.06 0.09 0.10 0.12 0.12 0.11 0.08 0.08 0.10 0.12 0.13 0.12 0.10 0.10 0.10 0.08 0.06 0.04 0.03 0.03 0.02 0.01 0.01 0.01 0.01 0.01 0.01 0.01 0.01
0.02 0.02 0.03 0.04 0.03 0.02 0.03 0.03 0.02 0.03 0.03 0.03 0.04 0.03 0.04 0.05 0.06 0.07 0.08 0.06 0.05 0.05 0.05 0.07 0.08 0.10 0.11 0.12 0.14 0.13 0.09 0.07 0.06 0.05 0.02 0.02 0.02 0.03 0.03 0.03 0.02 0.02 0.02
MSLP
1008.37 1008.70 1009.04 1009.37 1009.70 1010.02 1010.37 1010.75 1011.20 1011.71 1012.25 1012.81 1013.35 1013.84 1014.24 1014.56 1014.80 1014.99 1015.16 1015.34 1015.55 1015.81 1016.10 1016.42 1016.74 1017.05 1017.32 1017.55 1017.73 1017.86 1017.94 1017.98 1017.98 1017.92 1017.81 1017.65 1017.42 1017.13 1016.81 1016.47 1016.13 1015.82 1015.56
1007.91 1008.27 1008.65 1008.99 1009.32 1009.62 1009.95 1010.32 1010.77 1011.29 1011.88 1012.49 1013.08 1013.60 1014.04 1014.36 1014.59 1014.75 1014.89 1015.04 1015.23 1015.48 1015.78 1016.13 1016.48 1016.81 1017.11 1017.34 1017.52 1017.65 1017.74 1017.79 1017.81 1017.80 1017.75 1017.64 1017.46 1017.21 1016.89 1016.52 1016.12 1015.72 1015.36
1007.26 1007.70 1008.15 1008.55 1008.90 1009.22 1009.54 1009.91 1010.35 1010.88 1011.49 1012.13 1012.75 1013.31 1013.77 1014.10 1014.33 1014.47 1014.58 1014.71 1014.88 1015.13 1015.43 1015.79 1016.16 1016.51 1016.81 1017.05 1017.23 1017.36 1017.45 1017.52 1017.57 1017.61 1017.62 1017.59 1017.48 1017.28 1016.98 1016.60 1016.16 1015.70 1015.24
1006.34 1006.91 1007.47 1007.97 1008.39 1008.76 1009.10 1009.47 1009.91 1010.45 1011.06 1011.72 1012.37 1012.96 1013.44 1013.79 1014.02 1014.16 1014.25 1014.36 1014.52 1014.75 1015.06 1015.42 1015.79 1016.15 1016.45 1016.69 1016.87 1016.99 1017.09 1017.17 1017.27 1017.36 1017.44 1017.48 1017.44 1017.30 1017.05 1016.69 1016.23 1015.72 1015.19
1005.14 1005.85 1006.56 1007.19 1007.73 1008.17 1008.56 1008.95 1009.41 1009.95 1010.57 1011.24 1011.91 1012.53 1013.03 1013.41 1013.65 1013.80 1013.90 1014.00 1014.15 1014.37 1014.66 1015.01 1015.38 1015.73 1016.03 1016.27 1016.44 1016.56 1016.67 1016.77 1016.90 1017.04 1017.18 1017.29 1017.33 1017.26 1017.06 1016.72 1016.27 1015.74 1015.19
1003.72 1004.57 1005.43 1006.21 1006.87 1007.41 1007.86 1008.30 1008.78 1009.33 1009.96 1010.65 1011.34 1011.99 1012.53 1012.95 1013.22 1013.40 1013.51 1013.62 1013.76 1013.97 1014.25 1014.58 1014.94 1015.28 1015.57 1015.80 1015.96 1016.09 1016.20 1016.32 1016.47 1016.65 1016.85 1017.01 1017.12 1017.11 1016.97 1016.68 1016.26 1015.74 1015.17
1002.20 1003.16 1004.15 1005.06 1005.84 1006.48 1007.01 1007.49 1007.99 1008.56 1009.21 1009.92 1010.64 1011.33 1011.92 1012.38 1012.71 1012.93 1013.07 1013.19 1013.33 1013.54 1013.80 1014.12 1014.46 1014.78 1015.06 1015.28 1015.45 1015.58 1015.69 1015.82 1015.99 1016.20 1016.43 1016.64 1016.80 1016.85 1016.77 1016.53 1016.16 1015.68 1015.13
1000.73 1001.76 1002.83 1003.84 1004.70 1005.41 1005.99 1006.52 1007.05 1007.64 1008.31 1009.04 1009.81 1010.54 1011.19 1011.72 1012.11 1012.38 1012.56 1012.71 1012.87 1013.07 1013.32 1013.62 1013.94 1014.26 1014.53 1014.75 1014.92 1015.05 1015.17 1015.31 1015.49 1015.71 1015.95 1016.19 1016.39 1016.49 1016.46 1016.29 1015.97 1015.54 1015.04
999.45 1000.49 1001.58 1002.62 1003.52 1004.26 1004.88 1005.43 1005.98 1006.59 1007.28 1008.05 1008.86 1009.65 1010.36 1010.96 1011.42 1011.75 1011.99 1012.17 1012.35 1012.56 1012.81 1013.11 1013.42 1013.73 1014.00 1014.23 1014.40 1014.54 1014.66 1014.80 1014.98 1015.20 1015.44 1015.69 1015.91 1016.05 1016.07 1015.95 1015.71 1015.34 1014.90
998.46 999.45 1000.51 1001.52 1002.40 1003.13 1003.74 1004.29 1004.85 1005.47 1006.19 1006.99 1007.84 1008.69 1009.47 1010.14 1010.67 1011.07 1011.36 1011.59 1011.80 1012.03 1012.29 1012.59 1012.90 1013.22 1013.51 1013.74 1013.93 1014.08 1014.21 1014.35 1014.52 1014.72 1014.95 1015.19 1015.41 1015.57 1015.63 1015.58 1015.40 1015.10 1014.73
997.79 998.69 999.65 1000.58 1001.39 1002.07 1002.65 1003.18 1003.74 1004.37 1005.10 1005.93 1006.82 1007.72 1008.56 1009.29 1009.89 1010.35 1010.70 1010.98 1011.23 1011.49 1011.77 1012.09 1012.43 1012.77 1013.08 1013.35 1013.56 1013.73 1013.86 1013.99 1014.14 1014.32 1014.53 1014.74 1014.95 1015.12 1015.21 1015.20 1015.08 1014.85 1014.55
997.39 998.16 999.00 999.81 1000.52 1001.13 1001.65 1002.16 1002.71 1003.35 1004.10 1004.95 1005.87 1006.81 1007.69 1008.47 1009.12 1009.63 1010.04 1010.37 1010.66 1010.96 1011.29 1011.64 1012.02 1012.40 1012.75 1013.05 1013.30 1013.49 1013.63 1013.76 1013.88 1014.03 1014.19 1014.38 1014.56 1014.72 1014.82 1014.84 1014.78 1014.62 1014.38
997.14 997.79 998.50 999.18 999.79 1000.31 1000.79 1001.28 1001.82 1002.47 1003.24 1004.11 1005.05 1006.00 1006.91 1007.71 1008.40 1008.95 1009.40 1009.78 1010.12 1010.47 1010.84 1011.25 1011.68 1012.11 1012.51 1012.86 1013.15 1013.36 1013.52 1013.63 1013.74 1013.84 1013.97 1014.10 1014.25 1014.39 1014.49 1014.53 1014.51 1014.41 1014.23
996.94 997.49 998.08 998.65 999.16 999.63 1000.08 1000.56 1001.12 1001.78 1002.57 1003.45 1004.40 1005.35 1006.25 1007.06 1007.75 1008.33 1008.81 1009.22 1009.61 1010.01 1010.44 1010.91 1011.40 1011.89 1012.35 1012.75 1013.08 1013.32 1013.49 1013.60 1013.68 1013.75 1013.83 1013.92 1014.02 1014.12 1014.21 1014.26 1014.27 1014.21 1014.09
996.72 997.19 997.69 998.18 998.64 999.07 999.52 1000.02 1000.61 1001.30 1002.11 1003.00 1003.93 1004.87 1005.75 1006.53 1007.21 1007.78 1008.27 1008.71 1009.14 1009.59 1010.07 1010.60 1011.16 1011.71 1012.23 1012.68 1013.05 1013.32 1013.51 1013.62 1013.68 1013.71 1013.74 1013.78 1013.84 1013.91 1013.97 1014.02 1014.04 1014.02 1013.95
996.46 996.88 997.32 997.77 998.21 998.65 999.13 999.67 1000.30 1001.03 1001.86 1002.75 1003.66 1004.56 1005.39 1006.13 1006.77 1007.32 1007.81 1008.26 1008.71 1009.20 1009.73 1010.32 1010.92 1011.53 1012.10 1012.60 1013.00 1013.31 1013.51 1013.62 1013.67 1013.68 1013.68 1013.68 1013.69 1013.72 1013.76 1013.80 1013.82 1013.82 1013.79
996.20 996.59 997.01 997.45 997.90 998.38 998.91 999.51 1000.20 1000.97 1001.81 1002.68 1003.57 1004.41 1005.18 1005.86 1006.45 1006.96 1007.42 1007.87 1008.34 1008.85 1009.42 1010.03 1010.68 1011.33 1011.93 1012.47 1012.91 1013.24 1013.46 1013.58 1013.63 1013.63 1013.61 1013.58 1013.56 1013.56 1013.57 1013.58 1013.60 1013.61 1013.60
996.03 996.41 996.83 997.28 997.77 998.30 998.89 999.55 1000.29 1001.09 1001.93 1002.78 1003.62 1004.40 1005.10 1005.71 1006.23 1006.70 1007.13 1007.57 1008.03 1008.55 1009.13 1009.77 1010.43 1011.09 1011.72 1012.27 1012.74 1013.09 1013.34 1013.48 1013.55 1013.55 1013.53 1013.49 1013.45 1013.42 1013.40 1013.40 1013.40 1013.40 1013.40
996.03 996.42 996.85 997.33 997.85 998.44 999.08 999.79 1000.55 1001.36 1002.19 1003.01 1003.78 1004.49 1005.12 1005.66 1006.13 1006.55 1006.95 1007.36 1007.82 1008.33 1008.91 1009.53 1010.19 1010.85 1011.48 1012.04 1012.51 1012.89 1013.16 1013.33 1013.43 1013.46 1013.45 1013.41 1013.37 1013.32 1013.29 1013.26 1013.24 1013.23 1013.22
996.27 996.67 997.12 997.62 998.17 998.79 999.46 1000.19 1000.96 1001.75 1002.55 1003.31 1004.02 1004.67 1005.23 1005.71 1006.13 1006.51 1006.89 1007.28 1007.72 1008.21 1008.77 1009.37 1010.00 1010.64 1011.24 1011.80 1012.27 1012.66 1012.96 1013.17 1013.30 1013.37 1013.39 1013.37 1013.34 1013.29 1013.23 1013.18 1013.14 1013.10 1013.08
996.76 997.18 997.64 998.15 998.71 999.33 1000.00 1000.71 1001.46 1002.21 1002.96 1003.66 1004.31 1004.89 1005.40 1005.84 1006.23 1006.59 1006.95 1007.33 1007.75 1008.22 1008.74 1009.31 1009.90 1010.49 1011.07 1011.60 1012.06 1012.46 1012.78 1013.02 1013.20 1013.31 1013.36 1013.38 1013.36 1013.31 1013.24 1013.17 1013.10 1013.03 1012.98
997.47 997.90 998.37 998.88 999.43 1000.03 1000.66 1001.33 1002.02 1002.71 1003.38 1004.02 1004.61 1005.15 1005.62 1006.04 1006.42 1006.78 1007.14 1007.51 1007.92 1008.37 1008.85 1009.37 1009.91 1010.45 1010.97 1011.47 1011.92 1012.31 1012.65 1012.92 1013.13 1013.28 1013.37 1013.41 1013.41 1013.37 1013.29 1013.20 1013.10 1013.01 1012.93
998.33 998.78 999.26 999.75 1000.28 1000.82 1001.40 1002.00 1002.61 1003.22 1003.82 1004.40 1004.93 1005.43 1005.89 1006.31 1006.69 1007.07 1007.44 1007.82 1008.22 1008.64 1009.09 1009.55 1010.03 1010.51 1010.98 1011.43 1011.85 1012.23 1012.57 1012.85 1013.09 1013.26 1013.38 1013.45 1013.45 1013.41 1013.33 1013.22 1013.11 1012.99 1012.89
999.26 999.75 1000.23 1000.70 1001.18 1001.68 1002.18 1002.69 1003.22 1003.74 1004.27 1004.78 1005.28 1005.76 1006.21 1006.64 1007.05 1007.44 1007.83 1008.22 1008.61 1009.01 1009.42 1009.83 1010.24 1010.66 1011.06 1011.46 1011.84 1012.20 1012.52 1012.81 1013.05 1013.23 1013.36 1013.42 1013.43 1013.38 1013.29 1013.18 1013.05 1012.92 1012.81
1000.24 1000.75 1001.23 1001.69 1002.13 1002.56 1002.98 1003.41 1003.85 1004.30 1004.76 1005.22 1005.68 1006.14 1006.59 1007.04 1007.47 1007.89 1008.29 1008.68 1009.06 1009.43 1009.79 1010.15 1010.50 1010.85 1011.19 1011.53 1011.86 1012.18 1012.48 1012.74 1012.96 1013.14 1013.25 1013.30 1013.29 1013.24 1013.13 1013.01 1012.87 1012.75 1012.65
1001.23 1001.77 1002.26 1002.70 1003.10 1003.47 1003.83 1004.19 1004.55 1004.93 1005.32 1005.74 1006.17 1006.61 1007.06 1007.51 1007.95 1008.37 1008.78 1009.16 1009.52 1009.85 1010.16 1010.46 1010.75 1011.03 1011.32 1011.60 1011.88 1012.15 1012.40 1012.62 1012.81 1012.94 1013.02 1013.05 1013.01 1012.93 1012.82 1012.69 1012.56 1012.45 1012.37
Thickness
5804 5802 5800 5796 5792 5788 5784 5781 5778 5776 5772 5768 5763 5759 5757 5757 5756 5755 5754 5753 5751 5750 5749 5748 5747 5745 5744 5743 5741 5739 5736 5733 5733 5730 5728 5729 5732 5732 5732 5732 5732 5732 5731
5801 5802 5800 5798 5794 5790 5787 5784 5781 5778 5775 5772 5768 5764 5761 5759 5758 5756 5755 5754 5752 5751 5750 5748 5747 5745 5743 5741 5740 5738 5734 5732 5732 5728 5724 5721 5723 5727 5730 5730 5730 5730 5730
5803 5802 5801 5799 5797 5793 5790 5789 5785 5782 5778 5775 5770 5766 5761 5759 5757 5755 5755 5755 5753 5752 5750 5748 5747 5745 5743 5741 5740 5738 5735 5730 5730 5729 5725 5718 5716 5720 5724 5727 5728 5728 5728
5809 5806 5804 5802 5800 5798 5795 5791 5787 5783 5779 5776 5771 5766 5761 5757 5756 5756 5755 5754 5753 5752 5750 5748 5747 5745 5743 5741 5740 5738 5736 5732 5728 5727 5727 5725 5723 5718 5717 5722 5725 5726 5726
5813 5810 5809 5808 5805 5802 5797 5793 5788 5784 5781 5777 5773 5768 5764 5761 5758 5756 5754 5753 5752 5751 5750 5749 5747 5744 5743 5741 5739 5737 5735 5733 5730 5727 5726 5724 5722 5721 5717 5716 5719 5722 5724
5816 5814 5813 5809 5806 5803 5798 5793 5787 5783 5781 5778 5774 5770 5765 5762 5758 5755 5753 5752 5751 5750 5749 5748 5746 5744 5742 5741 5739 5737 5735 5732 5731 5729 5727 5724 5722 5720 5718 5716 5717 5718 5722
5817 5814 5810 5808 5805 5802 5798 5793 5788 5783 5780 5777 5774 5771 5767 5763 5759 5756 5753 5751 5749 5748 5748 5747 5745 5743 5742 5740 5739 5736 5734 5732 5730 5728 5727 5726 5725 5724 5721 5718 5716 5716 5718
5818 5815 5813 5811 5807 5803 5799 5793 5788 5783 5780 5776 5773 5771 5767 5763 5760 5757 5754 5752 5750 5749 5748 5746 5745 5743 5741 5739 5737 5735 5733 5731 5729 5728 5727 5726 5725 5724 5722 5719 5716 5713 5714
5815 5814 5812 5810 5806 5802 5797 5792 5787 5782 5779 5776 5772 5769 5766 5763 5760 5757 5754 5752 5751 5749 5747 5745 5743 5742 5740 5738 5736 5733 5732 5730 5729 5727 5726 5725 5724 5723 5722 5721 5718 5714 5711
5811 5811 5809 5808 5805 5801 5796 5791 5787 5782 5779 5775 5771 5768 5765 5762 5759 5755 5752 5751 5750 5748 5746 5743 5741 5739 5738 5736 5734 5732 5730 5728 5727 5726 5725 5723 5723 5721 5720 5719 5717 5716 5713
5807 5806 5806 5805 5801 5797 5792 5787 5783 5779 5775 5771 5768 5765 5762 5759 5757 5754 5752 5750 5748 5746 5744 5742 5739 5736 5735 5734 5732 5730 5728 5726 5724 5724 5723 5721 5721 5719 5718 5717 5715 5714 5712
5801 5801 5800 5798 5795 5790 5787 5782 5777 5774 5772 5768 5764 5761 5759 5756 5753 5751 5749 5747 5745 5742 5741 5738 5736 5734 5733 5731 5729 5727 5725 5723 5722 5721 5719 5718 5718 5716 5715 5714 5713 5712 5711
5792 5792 5793 5791 5789 5786 5782 5779 5775 5771 5769 5765 5760 5756 5754 5751 5749 5747 5745 5743 5741 5738 5736 5735 5732 5731 5729 5727 5725 5723 5722 5721 5719 5718 5717 5716 5714 5712 5711 5710 5710 5709 5708
5782 5783 5783 5782 5781 5779 5776 5773 5770 5767 5764 5760 5756 5751 5749 5747 5745 5744 5741 5739 5737 5734 5732 5731 5729 5728 5726 5725 5722 5719 5717 5716 5716 5715 5714 5713 5712 5710 5709 5707 5706 5705 5703
5772 5773 5773 5773 5772 5771 5769 5767 5764 5762 5760 5755 5750 5747 5745 5743 5742 5739 5737 5734 5732 5730 5728 5726 5724 5724 5723 5722 5719 5716 5714 5712 5711 5711 5710 5710 5709 5708 5706 5704 5703 5701 5699
5764 5765 5765 5765 5764 5763 5761 5760 5757 5755 5753 5749 5745 5742 5740 5738 5736 5734 5732 5730 5728 5725 5723 5722 5720 5719 5718 5717 5715 5713 5710 5708 5706 5706 5705 5705 5705 5704 5703 5701 5700 5699 5696
5758 5758 5759 5758 5758 5756 5755 5752 5751 5749 5745 5742 5739 5736 5735 5732 5730 5728 5725 5724 5722 5720 5718 5717 5715 5714 5713 5711 5709 5708 5706 5704 5702 5701 5700 5700 5700 5698 5697 5696 5695 5694 5693
5752 5752 5752 5752 5751 5749 5748 5746 5743 5741 5738 5735 5733 5730 5728 5726 5724 5721 5719 5717 5716 5714 5713 5711 5710 5709 5708 5706 5704 5702 5700 5699 5698 5696 5695 5694 5693 5692 5690 5689 5688 5688 5687
5746 5745 5745 5745 5743 5741 5740 5738 5734 5732 5730 5727 5726 5724 5722 5719 5716 5714 5713 5712 5710 5709 5708 5706 5704 5703 5702 5699 5697 5695 5693 5692 5691 5690 5689 5688 5687 5686 5684 5682 5681 5680 5680
5737 5737 5737 5736 5734 5733 5732 5728 5724 5722 5720 5719 5718 5716 5714 5711 5710 5708 5706 5705 5704 5702 5701 5699 5698 5696 5695 5693 5691 5688 5686 5684 5684 5683 5682 5681 5680 5679 5677 5676 5674 5673 5673
5728 5728 5727 5725 5725 5724 5722 5718 5715 5713 5712 5711 5710 5707 5705 5703 5703 5701 5699 5697 5696 5693 5691 5690 5689 5689 5688 5687 5684 5682 5680 5678 5676 5675 5675 5674 5672 5671 5670 5669 5668 5667 5666
5718 5717 5716 5715 5715 5714 5712 5708 5706 5705 5704 5702 5700 5699 5697 5696 5695 5693 5691 5690 5688 5685 5682 5680 5679 5680 5680 5679 5677 5675 5674 5672 5670 5668 5667 5666 5665 5663 5661 5661 5661 5659 5656
5706 5705 5705 5704 5703 5701 5700 5698 5697 5695 5694 5692 5691 5689 5687 5685 5684 5684 5682 5680 5678 5676 5673 5671 5671 5671 5671 5670 5669 5667 5665 5665 5663 5661 5660 5658 5657 5655 5654 5653 5652 5650 5648
5695 5694 5693 5692 5690 5690 5689 5688 5687 5686 5684 5682 5680 5679 5678 5677 5676 5675 5673 5671 5669 5667 5665 5663 5662 5662 5662 5661 5659 5658 5656 5654 5653 5652 5651 5649 5648 5647 5646 5645 5643 5641 5640
5684 5683 5683 5682 5680 5680 5679 5679 5677 5676 5673 5672 5670 5669 5667 5666 5665 5664 5662 5662 5661 5659 5656 5655 5653 5653 5653 5652 5649 5648 5647 5645 5643 5641 5641 5640 5639 5638 5637 5636 5635 5633 5631
5675 5674 5673 5672 5671 5670 5669 5668 5667 5666 5665 5662 5661 5659 5658 5657 5656 5654 5652 5652 5650 5648 5646 5644 5643 5644 5643 5641 5640 5639 5637 5634 5632 5630 5630 5630 5629 5629 5628 5627 5626 5624 5623